Theta_e
309 309 309 309 309 309 309 309 309 309 309 310 310 310 310 310 310 311 310 311 311 311 311 311 312 312 313 313 313 314 314 314 315 314 315 315 315 316 315 315 314 314 314 314 313 313 313 313 315 315 315 315 315 316 317 319 318 318 328 325 320 326 325 325 328 319 316 321 317 315 315 313 315 316 315 316 316 316 316 316 316 315 315 315 315 315 315 315
309 309 309 309 309 310 309 309 309 309 310 310 310 310 310 310 310 311 311 311 311 311 311 311 312 312 312 313 314 314 314 314 315 315 315 315 315 314 314 314 314 314 314 314 314 313 314 314 315 315 315 315 316 316 318 319 317 322 327 321 324 333 324 319 322 316 314 318 315 315 315 313 314 315 314 316 315 315 315 316 315 315 315 315 315 315 315 315
309 309 309 310 310 310 310 310 310 310 310 310 310 310 310 310 311 311 311 311 311 311 311 311 312 312 313 313 314 314 315 316 316 316 315 314 314 314 314 315 315 315 315 314 314 314 314 315 315 315 315 315 316 317 318 319 318 319 319 323 333 327 316 315 316 315 316 316 314 314 314 313 314 314 314 314 314 314 315 316 315 315 316 315 315 315 315 315
309 309 310 310 310 310 310 310 310 310 310 310 310 310 310 310 310 310 310 310 311 311 311 312 312 313 313 314 315 316 317 318 317 315 314 314 314 314 314 314 314 316 315 314 313 314 315 315 315 315 316 315 316 318 318 319 318 317 318 326 328 316 315 318 316 317 316 315 314 313 314 314 315 315 314 314 315 316 315 315 315 315 316 315 315 315 315 315
309 309 309 309 310 309 310 310 310 310 310 310 310 310 310 310 310 310 311 311 311 312 312 313 313 314 315 317 318 318 318 320 317 314 314 314 314 314 314 314 315 317 315 314 313 314 315 315 315 315 316 315 315 317 317 318 318 318 319 321 318 313 316 318 316 317 316 315 314 313 315 315 315 315 315 315 316 316 315 316 316 315 315 314 314 315 314 314
309 309 309 309 309 310 310 309 309 309 310 310 310 310 310 311 311 311 312 312 313 314 315 316 316 317 317 317 317 316 317 320 317 315 315 315 314 314 314 314 317 317 315 314 313 314 315 315 315 315 315 314 314 316 315 317 318 319 320 317 316 316 316 317 318 317 317 316 314 314 315 315 314 314 314 314 315 316 316 316 315 314 314 314 314 314 314 314
309 309 309 309 309 309 309 309 310 310 310 310 311 311 311 312 313 314 315 316 317 317 317 317 317 316 316 315 316 315 316 318 318 317 317 317 316 315 315 317 318 317 315 314 313 314 314 315 315 314 315 314 313 315 314 315 316 319 321 317 317 317 315 317 317 316 316 315 315 315 314 312 313 314 314 314 315 316 316 315 314 313 314 314 314 313 314 314
308 309 309 309 309 310 310 310 310 310 311 312 313 314 315 316 317 317 318 317 317 317 316 316 315 315 315 316 316 317 316 317 318 317 318 318 318 317 317 318 318 317 315 313 313 314 314 315 315 314 314 314 313 313 313 313 315 318 321 317 315 315 315 315 314 314 315 314 314 314 312 312 313 313 312 313 316 316 314 313 313 313 314 314 313 313 314 314
309 309 309 310 310 311 312 312 313 314 315 316 317 317 318 318 318 317 317 316 316 316 316 316 316 316 317 317 318 318 318 318 318 319 319 319 319 319 319 319 318 316 314 313 313 313 314 314 315 314 313 313 313 313 313 314 315 315 316 315 313 313 313 314 314 314 314 314 313 312 312 312 312 313 313 314 316 315 314 313 313 313 314 314 314 314 314 314
312 312 313 313 314 315 315 316 317 317 318 318 318 318 317 317 316 316 316 317 316 316 317 317 317 317 318 319 318 318 318 318 318 319 319 319 320 319 319 319 317 315 314 314 313 313 314 314 314 314 314 314 314 313 312 314 315 313 312 312 312 312 312 313 313 314 313 312 312 312 313 312 311 312 314 316 316 314 313 312 313 314 314 314 314 314 314 315
316 316 316 317 317 317 317 317 317 317 317 317 317 316 316 317 317 317 317 317 317 317 317 317 317 317 318 319 318 318 317 318 318 318 318 318 318 318 319 318 316 315 314 314 314 314 313 314 314 315 315 314 313 313 313 313 313 312 312 313 312 311 312 312 312 313 312 313 313 312 313 312 310 313 316 316 316 314 312 312 312 313 314 314 314 314 314 314
317 317 317 317 317 317 317 317 317 317 317 316 316 317 317 317 317 316 316 316 316 316 316 317 317 318 319 319 319 318 318 318 318 318 318 319 318 318 318 317 316 315 315 315 315 315 313 314 314 315 315 314 314 313 313 313 313 313 312 314 315 312 313 313 312 312 311 313 313 312 315 316 315 315 317 316 315 314 312 312 312 313 313 313 313 313 313 314
317 317 317 317 317 317 317 317 317 317 316 316 316 316 316 316 316 315 315 316 316 316 317 317 318 319 319 318 319 318 319 319 319 319 319 319 319 318 318 316 316 316 316 316 315 315 314 314 314 315 315 314 314 314 314 313 312 314 312 312 314 314 316 314 311 311 310 312 313 312 317 324 323 317 315 315 313 313 312 311 312 312 312 312 312 312 312 312
317 317 316 316 316 316 316 316 316 315 315 315 315 315 315 315 315 315 314 315 316 316 317 318 318 319 318 318 318 318 319 319 318 319 319 319 319 318 318 317 317 316 316 316 315 314 314 315 315 316 316 315 315 313 314 314 314 315 312 313 315 314 320 318 310 311 313 313 312 313 317 324 324 317 314 314 312 312 312 311 312 312 311 311 311 311 311 311
316 316 315 315 315 314 314 314 314 314 314 314 314 313 314 313 314 314 314 315 316 317 317 318 318 318 317 318 318 318 319 319 319 319 318 319 318 318 318 317 317 316 316 315 315 315 315 316 316 316 315 315 315 316 318 320 324 321 313 319 322 315 320 321 310 310 315 314 310 312 318 320 318 316 315 312 311 313 311 311 312 310 310 309 309 309 309 310
313 313 313 313 313 312 313 313 313 313 313 313 313 313 313 313 313 313 315 315 316 317 318 318 319 318 318 318 319 318 319 319 319 319 319 318 318 318 317 316 316 315 315 314 314 315 315 316 315 315 315 313 317 324 322 319 326 325 315 319 323 317 318 318 313 310 311 313 311 311 317 319 317 315 315 313 312 313 311 310 310 308 308 308 308 308 308 308
312 312 312 312 312 312 312 312 313 312 313 313 313 313 313 314 314 315 316 317 318 318 318 319 319 318 319 319 319 319 319 319 318 318 318 318 317 317 316 316 315 315 314 314 314 314 315 315 314 315 314 312 316 322 321 317 321 323 317 315 318 317 315 317 318 313 309 313 313 312 313 316 317 314 313 314 312 312 310 309 307 306 307 306 307 307 307 307
312 312 312 312 312 312 312 313 313 313 313 313 313 314 314 315 316 316 317 318 319 319 319 319 318 320 323 320 319 319 319 318 318 318 317 317 317 316 315 315 314 314 314 313 313 314 314 312 313 317 315 312 314 317 318 319 319 322 320 318 318 318 315 316 317 314 313 316 315 315 315 316 318 314 311 312 311 311 309 307 306 305 305 305 305 306 306 307
314 314 314 314 314 313 313 313 313 313 314 314 314 315 316 317 317 318 319 319 319 321 323 321 319 323 324 319 318 319 318 318 318 318 317 317 316 315 315 314 314 313 312 314 314 312 312 312 313 317 316 314 315 314 316 317 317 320 319 319 320 319 318 317 316 313 313 315 316 316 316 317 319 316 311 310 310 309 307 305 304 304 304 304 304 304 305 305
316 316 315 315 315 313 313 313 313 314 315 315 316 317 319 319 320 321 320 320 320 321 323 322 320 321 321 319 319 318 318 318 318 318 317 317 316 315 314 313 313 313 313 318 318 311 311 315 316 317 317 316 315 313 314 314 314 315 315 317 318 317 318 317 316 315 311 314 319 318 316 318 318 315 310 308 309 308 305 304 304 303 303 303 303 303 303 304
318 318 317 316 315 314 314 314 314 315 315 317 317 319 320 320 321 322 320 320 321 320 321 320 320 320 320 320 319 318 319 319 318 318 317 316 315 314 314 314 315 316 315 315 315 311 311 316 317 317 317 315 314 312 312 312 312 313 314 315 316 316 315 314 315 315 311 313 320 318 317 320 318 313 308 306 309 308 304 304 303 303 303 302 302 302 303 303
319 318 317 316 315 314 315 315 316 316 317 318 318 320 321 320 320 320 319 319 320 320 320 320 320 320 320 320 319 319 318 318 318 317 316 315 315 315 315 315 318 319 315 312 314 314 314 316 316 315 313 312 312 312 311 312 312 313 313 313 315 316 316 317 319 317 313 314 321 320 317 319 316 309 306 305 306 305 304 304 303 303 302 302 302 302 302 303
319 318 317 316 315 315 315 316 317 318 318 319 320 320 321 320 320 320 319 319 320 321 320 320 320 320 321 320 320 319 318 317 318 318 317 315 314 315 314 315 318 318 316 316 318 318 318 319 316 311 310 311 313 313 313 313 313 313 314 314 316 316 316 321 323 320 317 314 318 319 316 319 314 308 306 304 303 304 303 303 303 302 302 302 302 302 302 303
320 318 318 317 315 316 317 317 318 319 319 320 320 320 320 320 320 320 319 317 318 320 319 320 319 319 320 319 319 319 318 318 318 318 318 316 315 315 314 314 316 317 317 316 317 318 319 318 313 310 312 313 314 314 314 315 315 315 316 315 316 317 317 319 319 320 320 318 316 314 317 324 318 312 311 305 303 304 302 303 302 302 302 301 302 302 302 302
322 320 319 317 316 317 318 318 319 319 319 320 320 320 320 320 320 319 318 318 320 319 318 318 318 317 318 317 318 317 317 318 318 318 318 317 316 315 313 313 315 318 317 315 315 316 317 314 312 314 315 314 314 315 316 316 316 318 320 318 316 317 318 318 317 316 320 324 318 312 320 330 320 314 312 307 305 305 302 302 301 301 301 301 301 301 301 302
323 320 318 316 316 317 318 319 320 320 319 319 320 320 320 321 319 318 318 322 324 320 318 318 318 318 316 316 316 315 318 318 316 317 317 316 316 315 315 314 313 317 317 314 314 316 316 314 313 317 317 316 316 316 317 317 316 319 322 320 318 316 316 317 317 317 322 326 317 310 318 327 324 320 313 307 307 305 303 302 301 301 301 300 300 300 301 301
324 320 318 316 316 318 319 320 321 320 320 320 320 320 321 320 319 317 318 324 325 321 318 317 316 316 314 315 315 316 322 320 314 315 316 315 315 314 317 316 313 314 313 313 317 318 317 316 314 315 317 318 318 317 317 317 319 323 321 321 322 319 318 319 319 319 322 321 318 316 316 319 324 321 310 306 308 306 304 303 302 301 300 300 300 299 300 300
324 320 317 316 317 319 319 320 321 321 320 321 321 320 321 320 318 317 322 328 326 319 318 315 314 314 313 314 315 314 316 315 314 315 314 314 314 313 316 316 316 318 312 313 323 319 314 316 318 316 317 318 318 319 320 318 321 324 319 318 321 319 320 322 321 320 317 316 320 321 316 317 324 317 307 307 310 308 305 304 302 301 300 299 299 299 299 300
323 320 317 316 318 319 320 321 321 321 321 321 321 321 321 319 317 317 323 328 323 316 316 314 313 312 312 313 314 312 311 311 313 314 313 314 314 312 314 313 314 317 311 311 321 319 313 313 315 317 319 318 319 320 319 319 319 316 314 316 319 318 320 322 322 322 319 317 320 321 317 318 321 315 308 309 312 310 306 304 303 300 300 299 299 299 299 299
322 318 316 316 317 319 320 320 321 321 322 321 321 321 319 318 318 320 325 325 320 315 313 312 312 311 311 313 313 311 310 310 311 312 312 312 313 311 312 311 311 315 315 313 317 317 312 310 310 315 318 316 317 314 311 314 313 309 314 321 321 321 320 321 321 319 319 320 319 320 319 317 318 317 312 310 311 310 306 303 303 301 300 299 298 298 298 299
320 317 316 316 317 318 319 320 320 321 322 321 321 320 318 318 320 324 325 321 318 317 313 312 313 311 312 315 315 312 310 309 309 312 313 312 313 311 311 312 312 318 320 317 318 317 313 312 312 313 312 311 316 314 309 309 309 312 322 324 321 323 320 320 321 319 321 321 317 318 317 314 318 319 314 311 309 307 306 304 303 301 300 299 298 298 298 299
319 317 316 316 317 318 318 320 320 321 322 321 321 319 318 320 321 324 323 320 320 320 316 315 313 311 313 316 316 314 311 310 309 312 315 314 315 314 314 316 316 320 321 319 321 319 317 317 313 311 311 311 319 320 314 312 313 317 323 321 320 322 320 321 323 319 320 319 313 314 315 313 317 317 312 313 309 304 304 304 302 301 300 299 298 298 298 299
319 317 316 316 316 317 318 319 321 321 322 321 320 319 318 321 323 322 322 323 322 318 315 317 316 315 316 315 317 315 313 313 311 311 314 313 314 315 316 317 316 316 317 317 318 318 320 321 314 312 313 312 317 320 318 319 317 317 320 320 321 321 321 326 324 317 318 318 311 310 313 315 319 315 308 308 305 301 303 303 302 301 299 299 298 298 298 298
318 317 317 316 316 317 318 320 321 321 321 320 319 319 318 321 322 320 322 323 321 317 316 318 317 316 316 316 318 317 314 315 313 312 313 312 314 317 317 315 313 314 317 316 317 318 321 323 319 317 315 313 315 316 320 324 318 314 318 319 320 322 324 325 323 319 318 319 312 309 314 321 322 313 303 301 300 299 302 303 301 300 299 299 298 297 298 298
319 319 318 316 316 317 319 320 321 320 320 320 319 319 320 321 321 321 322 322 320 319 316 317 318 316 317 320 320 317 315 316 315 313 315 314 316 320 321 319 315 315 318 318 319 318 318 323 323 315 310 312 314 312 315 322 319 313 314 317 317 320 320 317 318 317 314 316 315 313 317 319 315 307 301 300 299 299 301 301 300 300 299 298 298 297 298 298
320 320 319 318 317 317 319 321 321 320 320 319 319 320 319 321 322 322 322 319 319 319 316 320 322 318 320 323 321 317 314 316 316 314 315 316 317 319 322 323 317 313 316 319 321 319 317 322 321 313 310 311 312 311 310 316 318 313 313 317 316 314 315 316 317 313 311 315 317 316 318 316 311 307 302 301 301 300 299 299 299 299 298 298 297 297 298 298
319 320 319 319 318 318 319 320 320 319 319 318 319 320 318 318 319 321 320 316 316 319 319 321 322 320 322 323 322 320 317 317 317 316 318 318 317 318 320 320 315 312 315 317 319 319 317 321 319 315 316 312 307 309 310 309 313 316 317 316 313 312 315 318 319 316 316 317 317 316 317 316 316 313 304 301 303 302 300 298 297 297 297 297 297 297 298 298
319 319 318 319 319 319 319 319 319 319 318 317 318 319 318 318 315 315 317 314 315 321 321 321 321 320 322 322 322 321 318 319 318 318 321 320 318 318 318 317 313 311 312 312 316 319 316 318 318 314 315 313 308 311 314 310 309 314 316 312 313 317 318 317 318 318 319 317 317 319 316 314 316 315 310 307 304 302 301 299 298 297 296 296 297 297 297 297
319 318 318 318 318 319 319 318 318 318 317 317 318 318 318 318 315 313 315 314 315 320 321 321 320 319 320 321 322 320 317 319 319 318 320 319 317 315 314 315 313 309 309 311 316 319 315 317 319 312 311 313 312 314 319 317 310 309 311 310 312 317 318 318 317 317 319 318 318 320 318 316 317 315 317 315 306 301 301 300 299 298 296 297 298 297 297 297
317 316 316 317 318 318 318 318 317 317 317 316 316 316 315 316 315 314 315 315 315 317 319 320 319 318 319 319 319 319 318 319 320 318 318 317 317 315 312 315 315 311 309 310 313 316 314 315 317 315 311 312 316 316 319 321 316 312 314 315 314 314 315 317 314 315 319 319 319 319 317 320 319 311 313 313 305 301 301 300 299 298 297 298 298 299 299 299
315 315 314 315 317 317 317 317 316 316 316 314 314 315 315 314 314 314 315 314 315 316 316 318 319 319 318 318 318 318 317 320 320 317 317 317 316 316 313 313 314 313 311 312 314 316 315 316 317 316 314 315 321 318 313 315 317 316 317 317 316 315 315 316 315 315 315 316 319 318 315 318 315 306 307 309 304 301 300 300 299 298 298 300 300 300 300 300
314 314 314 314 316 316 316 316 315 315 315 314 313 314 314 314 314 314 314 314 315 314 314 316 318 318 317 318 319 318 317 319 319 317 318 318 316 316 314 311 311 311 313 317 318 313 312 315 316 315 316 317 317 312 305 307 312 314 315 316 316 315 314 316 317 316 315 313 315 315 315 316 310 302 304 304 301 301 300 299 299 299 299 300 300 300 300 300
313 313 312 313 315 315 315 316 314 314 315 313 313 314 313 313 313 313 314 314 314 315 315 316 316 316 317 316 317 317 317 318 318 318 319 319 317 314 311 310 311 311 313 317 317 312 311 314 315 314 317 316 313 310 307 307 309 311 313 314 315 316 315 315 315 316 317 315 314 314 315 315 308 301 299 299 299 300 300 300 300 299 300 301 300 300 300 300
312 311 311 312 313 313 315 315 314 314 314 312 312 313 312 312 312 313 313 314 315 315 315 316 315 315 315 315 315 317 317 317 317 316 317 318 316 311 308 310 312 311 312 315 315 312 312 315 316 314 316 316 314 313 312 311 311 313 315 314 313 314 315 313 312 313 314 315 316 315 314 315 311 303 300 300 300 300 299 300 301 301 301 301 301 301 301 300
310 310 310 310 311 312 312 313 313 313 313 313 313 313 312 312 311 312 313 313 313 314 315 315 314 314 314 314 315 315 315 315 316 315 315 316 314 309 306 309 310 309 311 311 310 310 313 317 316 314 315 315 314 314 315 314 314 313 314 314 312 312 313 312 313 313 312 314 315 314 313 313 312 307 304 303 302 301 300 300 301 302 302 301 302 302 301 300
308 309 308 308 309 309 309 310 310 311 312 313 313 312 313 313 311 310 311 312 312 312 313 313 312 313 314 314 315 315 314 313 314 315 314 315 317 312 306 306 307 307 308 308 308 309 312 315 315 314 315 314 313 314 314 314 314 313 313 313 312 311 311 311 312 312 312 312 313 313 312 311 312 310 306 303 302 303 301 300 300 301 302 302 303 303 302 301
307 308 307 307 308 308 307 308 308 309 311 312 312 312 312 313 311 310 310 311 312 312 312 312 312 313 313 313 313 314 314 313 312 313 313 314 316 312 305 304 306 306 307 307 307 309 311 312 312 313 313 312 312 312 310 310 312 313 312 311 310 309 309 309 310 310 311 311 311 311 310 310 311 311 308 306 304 303 301 300 301 302 302 303 303 303 302 300
305 306 306 306 308 308 307 308 307 308 310 310 311 311 311 312 312 311 310 309 309 311 312 312 312 312 313 313 313 313 313 313 312 312 312 312 313 311 307 305 304 304 306 305 305 307 311 311 311 310 311 310 308 308 309 310 310 311 312 312 311 310 308 307 307 308 310 310 310 310 310 309 309 309 309 307 304 302 303 302 302 302 302 302 302 302 301 300
302 302 303 304 305 304 305 307 307 307 309 309 310 310 310 311 311 310 309 309 309 309 311 312 312 312 312 312 313 313 312 312 312 311 311 312 311 311 311 310 306 303 304 306 304 305 308 310 310 309 309 309 306 305 308 309 308 309 309 310 310 309 306 305 306 307 308 308 308 308 307 307 307 306 307 305 303 303 303 303 302 302 301 302 301 301 301 300
300 301 301 302 301 300 301 305 307 307 308 308 309 310 309 310 311 309 307 309 309 309 309 310 310 311 311 311 312 312 311 311 311 311 311 311 311 310 311 312 308 304 303 306 306 303 304 308 309 307 307 308 304 302 303 304 305 307 308 308 306 304 303 304 304 305 305 305 305 305 304 304 303 302 301 302 302 302 301 301 302 301 301 301 300 300 299 299
299 300 300 300 301 300 300 303 305 307 308 308 309 309 309 309 310 309 307 307 308 309 309 310 309 309 310 310 310 310 309 309 310 309 309 309 309 308 309 309 307 307 306 306 306 305 304 306 306 305 307 308 304 301 301 301 301 303 304 304 302 300 302 303 302 303 304 303 304 303 302 304 302 298 297 297 297 297 298 299 300 300 300 299 298 298 298 298
298 298 298 299 301 301 300 301 304 305 306 307 307 308 308 307 307 307 307 306 305 307 307 307 308 308 308 308 308 308 307 307 307 305 304 305 304 304 306 305 304 307 308 304 304 305 305 305 306 305 307 307 302 300 301 301 302 304 303 303 302 300 301 301 300 301 301 301 303 302 302 303 300 297 296 297 295 294 295 297 298 298 298 298 298 298 298 298
Wind_Speed
7 7 7 6 6 6 6 5 5 5 5 5 5 5 5 6 6 6 7 7 8 8 9 9 10 10 11 12 13 15 16 17 17 18 19 17 13 8 3 4 3 2 1 3 3 2 3 3 2 2 2 1 1 2 1 1 2 2 3 3 1 3 4 5 7 5 3 3 5 8 11 3 5 8 9 10 11 14 17 21 20 17 17 16 16 16 18 19
8 8 8 8 7 7 7 7 7 7 7 7 6 7 7 7 8 8 8 9 9 10 10 10 11 11 12 13 15 17 18 18 19 18 16 10 3 5 9 8 5 3 4 4 3 2 3 3 3 3 2 2 1 1 2 2 3 2 3 2 3 5 5 5 7 6 3 5 8 12 12 5 6 8 9 7 10 12 14 24 23 18 19 18 16 16 15 16
9 9 9 9 8 8 8 8 8 8 8 8 8 8 9 9 10 10 10 10 10 11 11 12 12 13 14 15 17 18 18 19 17 12 4 3 8 10 9 5 3 6 7 5 3 3 4 4 5 3 3 2 1 1 2 2 3 1 3 2 6 7 5 7 8 9 9 9 9 10 10 8 10 10 8 6 9 9 9 19 20 18 25 25 24 22 19 18
10 10 10 10 9 9 9 9 9 10 9 10 10 10 10 10 11 11 11 11 11 12 12 13 14 15 15 16 16 15 16 16 9 0 5 7 8 8 3 3 7 10 9 5 5 6 7 7 5 4 3 1 1 1 2 4 4 2 4 4 5 4 3 8 10 11 12 8 7 9 9 11 14 11 8 7 7 7 11 19 19 20 28 29 27 24 19 17
11 11 11 11 11 11 11 11 11 10 10 11 11 11 11 11 11 11 11 12 12 13 13 14 15 15 15 15 14 13 11 7 1 4 6 6 6 5 6 8 11 13 10 5 5 8 9 8 5 4 3 1 1 1 3 6 6 3 5 7 5 3 3 9 10 10 11 7 8 11 9 11 13 11 11 10 6 10 19 26 25 27 29 27 24 20 16 15
13 13 12 12 12 11 12 11 11 11 11 11 11 11 11 11 12 12 12 13 13 13 14 14 14 14 14 13 12 10 5 1 2 3 5 7 8 9 10 11 13 12 10 6 6 8 10 9 6 5 4 1 3 4 3 5 7 3 5 7 9 8 7 13 15 14 14 12 12 12 11 13 11 12 15 15 17 23 30 31 30 29 24 20 18 15 14 12
14 14 13 13 12 12 12 12 12 12 12 12 12 12 12 12 12 13 13 13 13 13 13 13 12 12 11 11 11 8 7 8 7 7 9 10 12 12 13 14 13 10 10 7 6 8 10 10 8 6 3 0 3 6 3 3 7 5 4 5 9 11 10 15 17 16 17 16 18 16 15 15 10 11 12 19 31 33 32 29 25 20 16 16 13 9 8 8
14 14 13 13 13 13 12 12 12 12 12 12 12 13 13 13 13 13 13 12 12 12 12 11 10 10 10 10 9 7 10 11 8 8 10 11 14 15 15 14 11 9 8 6 6 8 9 10 11 7 3 2 3 5 3 2 4 5 6 6 6 9 11 15 16 18 20 19 20 16 16 17 14 12 12 27 37 29 23 20 14 11 11 10 6 4 4 5
13 14 13 13 13 12 12 12 13 13 13 13 13 13 13 13 13 12 12 12 11 11 11 11 10 10 9 10 9 7 10 10 6 7 7 9 11 13 13 12 9 8 6 5 7 9 10 10 11 10 5 4 4 4 2 1 3 5 6 6 6 10 13 15 16 20 20 19 16 10 14 18 13 9 12 24 21 12 11 9 9 9 8 6 5 5 4 4
13 14 13 13 13 13 13 13 13 13 14 14 14 13 13 13 12 12 12 11 11 11 11 11 11 11 10 11 7 5 8 7 6 6 6 6 8 8 10 9 9 7 6 6 7 9 11 9 9 9 7 4 4 4 2 3 3 3 4 6 9 12 15 15 16 22 20 17 15 9 12 17 8 1 8 16 10 6 8 8 9 8 6 4 3 3 4 5
14 14 13 13 13 13 13 13 14 14 14 14 13 13 13 13 13 12 12 12 12 12 12 12 12 11 11 11 9 9 9 8 8 9 10 11 10 10 10 9 8 7 7 7 6 8 11 11 8 6 5 3 2 3 4 4 4 5 6 8 10 11 14 15 15 21 15 10 11 8 8 11 2 3 11 19 12 10 10 10 7 5 4 2 1 2 3 4
14 14 14 13 14 14 14 14 14 14 14 14 14 14 13 13 13 13 12 12 12 12 12 12 11 12 12 13 16 15 13 13 13 13 13 14 13 12 11 10 9 8 8 8 9 10 11 13 11 8 5 3 1 1 3 3 4 7 6 5 10 9 11 16 14 13 7 4 6 4 4 7 2 8 18 18 12 11 10 8 5 5 4 3 2 1 1 1
15 14 14 14 14 14 14 14 14 14 14 14 14 14 13 13 12 12 12 12 12 12 12 12 12 12 12 13 17 16 14 14 14 13 13 13 13 12 11 11 11 11 11 11 11 11 11 12 11 10 7 4 2 1 3 3 5 7 3 1 6 7 7 10 5 2 2 3 5 5 2 7 6 13 17 11 9 8 8 8 5 5 5 4 4 2 3 2
16 15 15 15 14 14 14 14 15 15 15 14 14 13 13 12 12 12 12 12 12 12 12 12 12 12 11 13 15 15 15 15 14 14 14 14 14 13 13 12 12 12 11 10 10 10 10 9 9 9 7 6 4 3 4 5 3 4 2 1 3 3 5 7 2 1 2 3 7 7 2 7 8 14 13 8 8 9 9 7 3 4 5 5 5 5 5 5
15 15 15 15 14 14 14 14 14 14 14 13 13 13 12 12 12 12 12 12 12 12 12 12 12 11 12 15 16 14 14 14 12 11 11 12 13 13 13 12 10 9 8 9 10 10 8 7 7 6 5 6 5 2 3 4 3 2 2 4 2 2 5 11 7 5 4 2 6 7 1 5 9 13 12 8 10 13 7 5 4 5 7 7 7 7 7 7
15 15 14 14 14 13 13 13 13 13 12 12 12 12 12 11 11 12 12 13 13 13 12 12 12 10 9 13 13 12 12 10 8 8 9 10 11 12 11 10 8 7 8 9 10 10 8 6 5 4 3 3 1 3 3 4 4 3 1 4 3 3 3 7 7 3 5 1 2 3 1 4 5 9 13 11 15 14 2 7 7 8 9 9 9 9 9 9
15 14 14 13 13 12 12 12 12 12 12 11 11 11 11 12 12 13 13 13 13 14 13 12 11 9 9 13 12 11 10 8 8 8 9 9 9 10 9 8 7 7 8 8 9 8 7 6 4 3 1 1 3 5 3 2 4 3 1 3 4 4 3 3 6 4 2 3 0 2 2 6 6 12 19 16 16 7 8 11 10 11 10 11 11 11 11 11
14 13 13 13 12 11 11 11 11 11 11 10 11 11 11 12 13 14 14 15 14 12 12 12 8 5 8 12 11 10 9 7 7 8 9 9 9 8 7 7 7 7 7 5 6 6 6 4 3 1 1 1 3 5 2 5 6 5 3 3 3 4 3 4 6 4 4 3 2 3 4 8 9 13 15 15 13 4 13 13 12 12 13 14 14 14 14 13
13 13 12 12 11 10 11 11 10 11 10 10 11 11 11 12 13 15 16 16 13 8 6 8 8 3 4 6 6 6 6 6 6 7 9 9 9 9 8 7 6 8 6 3 4 6 7 3 4 1 1 4 6 7 10 11 9 7 6 4 4 4 4 5 7 5 2 4 6 6 7 8 9 8 10 14 9 10 15 14 14 14 16 17 17 18 18 18
13 12 12 11 10 10 10 11 11 11 11 10 11 10 10 9 7 9 12 15 16 14 12 12 12 12 11 10 8 7 8 9 9 10 11 11 11 10 10 8 6 6 4 3 3 4 6 4 2 5 7 9 11 12 13 10 5 4 3 4 4 4 5 6 6 6 2 1 6 7 5 7 6 3 8 12 7 11 12 13 15 15 17 18 19 20 21 22
13 12 12 12 11 10 11 11 11 12 12 11 10 9 7 5 3 5 7 11 16 17 19 19 19 21 21 19 16 13 12 10 10 12 12 13 11 8 9 8 5 3 2 3 3 2 4 5 6 9 11 11 9 9 9 6 3 3 4 5 4 4 7 7 6 6 2 3 5 3 3 7 4 3 7 9 7 7 8 13 15 16 18 18 19 21 22 23
13 13 12 12 11 11 12 12 12 12 12 11 9 8 7 7 7 8 8 9 15 17 18 20 23 26 27 26 25 23 17 10 12 14 13 13 13 9 8 7 4 3 2 3 3 1 2 4 9 14 12 5 2 2 6 7 6 6 4 3 5 4 4 6 6 5 1 4 5 2 3 6 2 4 6 9 8 7 9 13 14 16 18 18 19 20 22 23
13 12 12 12 11 12 13 13 13 12 11 10 9 8 7 7 7 9 8 7 13 18 19 21 25 28 29 28 27 25 20 14 14 15 15 14 14 12 9 8 5 3 2 4 5 4 3 6 13 16 7 2 4 2 6 5 5 5 4 3 6 3 1 4 5 4 1 1 2 2 4 5 0 3 5 9 9 12 14 14 15 16 17 17 19 20 22 23
13 12 12 12 12 13 14 14 13 11 11 10 8 7 6 6 6 7 7 5 7 12 16 20 21 23 25 24 21 19 18 17 13 11 15 17 15 11 9 8 6 3 4 7 8 7 7 7 7 6 5 5 7 4 5 5 3 3 5 5 6 5 5 7 4 5 4 3 1 1 4 5 2 1 2 6 9 12 12 14 15 14 15 17 19 20 22 22
13 13 13 13 13 14 15 15 13 11 10 9 7 7 6 4 5 5 5 3 4 7 10 12 13 13 16 15 14 12 11 13 14 10 11 18 18 9 5 8 6 4 7 6 6 6 9 9 4 3 4 6 5 5 5 7 3 4 5 10 10 9 9 8 3 4 4 4 3 1 2 5 3 1 3 3 5 6 7 10 12 12 14 16 18 19 20 21
14 14 13 14 14 16 16 14 12 12 10 9 8 7 6 4 2 3 3 2 4 5 4 5 6 5 7 8 8 8 3 5 12 13 12 16 19 11 4 5 4 3 6 5 2 3 5 8 4 5 4 6 5 6 5 7 4 3 5 9 11 9 7 6 2 1 1 4 3 2 2 5 5 2 5 4 4 4 4 6 8 11 13 14 16 17 18 20
16 15 15 15 16 17 16 12 12 13 10 9 9 8 6 4 2 1 3 3 4 3 4 4 4 4 5 7 11 10 2 2 6 10 14 16 16 11 5 3 2 2 4 4 1 3 3 3 1 4 5 5 5 6 5 8 6 4 4 5 7 7 7 5 5 5 3 3 4 3 2 3 6 4 3 6 6 3 3 3 5 9 11 13 14 16 17 18
18 17 16 17 18 19 16 13 13 13 11 8 8 10 6 5 5 3 3 1 3 3 4 3 4 4 5 10 14 8 2 3 4 4 12 15 13 9 5 5 5 4 3 5 3 4 1 1 2 6 5 4 6 4 7 9 4 5 3 6 5 5 5 4 5 3 1 2 4 3 2 2 7 3 2 4 4 3 6 6 5 9 11 12 14 15 17 18
21 19 19 18 19 18 17 16 15 14 12 9 8 10 8 7 5 4 2 2 1 3 2 3 4 3 6 10 9 4 2 2 2 5 10 11 11 5 2 6 6 3 1 3 4 5 1 2 3 6 5 5 4 0 6 8 3 4 5 7 5 5 4 4 4 3 2 1 4 5 5 3 5 1 3 2 4 6 7 5 6 9 11 12 13 15 16 18
23 21 20 19 20 20 20 20 19 15 13 11 10 10 10 8 5 3 4 4 0 2 3 4 3 3 6 6 2 2 1 0 2 8 7 5 8 5 3 3 4 3 1 3 2 5 3 2 2 4 4 5 4 3 2 4 3 5 6 6 5 5 5 3 2 4 2 3 5 9 9 5 4 3 5 4 3 5 8 6 6 9 12 13 14 15 16 17
24 22 21 22 23 23 22 22 20 17 16 13 11 12 11 6 2 3 6 2 2 1 3 2 1 3 6 4 2 2 1 0 3 7 3 2 4 2 3 3 2 3 3 4 3 5 4 2 2 3 4 4 6 4 2 3 4 5 4 4 3 4 4 4 4 3 0 5 4 6 6 5 5 5 3 3 3 3 10 10 10 12 15 17 16 16 16 17
25 23 22 23 25 24 23 22 17 17 18 15 13 13 9 2 1 4 3 2 1 2 2 2 1 3 5 2 1 3 2 1 2 4 3 2 3 3 2 3 3 2 3 4 3 4 3 4 3 2 3 5 5 4 3 4 5 5 4 5 2 3 3 3 3 0 3 6 3 2 1 2 7 5 1 2 4 2 8 13 18 20 21 21 19 17 17 17
25 23 22 24 25 24 24 21 16 17 19 17 16 12 6 2 4 4 3 1 1 2 1 2 2 3 5 2 1 2 2 1 3 3 2 2 2 3 4 3 5 2 1 2 1 2 3 5 2 0 3 6 7 4 2 1 2 4 4 5 3 2 0 3 4 2 4 5 3 1 3 2 6 2 1 4 5 6 7 14 23 26 25 24 21 19 18 17
24 21 22 25 25 24 23 20 18 17 20 21 16 8 3 4 3 3 5 4 1 1 1 2 3 3 3 2 3 3 2 2 3 4 1 2 2 3 4 4 5 3 2 2 1 3 1 5 2 4 2 5 7 5 5 4 4 4 4 5 4 4 4 4 4 3 4 4 3 2 2 3 3 1 3 4 3 1 8 16 21 23 24 23 21 20 19 17
24 22 23 23 24 25 22 22 21 19 23 24 13 4 4 5 1 2 5 4 1 1 1 2 3 3 1 1 2 2 3 2 3 4 2 3 3 3 3 4 5 4 3 3 2 2 3 5 6 3 0 5 5 3 5 6 2 2 3 4 2 4 5 3 3 4 2 3 3 2 3 4 3 1 3 1 3 6 12 18 21 21 21 22 21 20 19 18
25 25 25 24 25 25 23 25 24 22 29 23 8 4 7 4 3 3 2 2 2 3 4 1 3 3 1 2 2 1 1 1 2 3 2 2 3 4 3 3 6 8 6 4 3 1 2 4 5 3 1 3 3 2 3 3 2 1 2 3 3 3 5 2 2 1 2 3 4 2 3 4 1 1 3 3 4 5 8 14 19 21 21 22 22 22 21 19
26 25 26 28 28 26 26 27 24 25 30 19 6 7 5 2 5 4 1 2 1 2 5 2 1 3 3 1 1 2 1 1 2 2 2 2 2 4 4 3 5 10 10 5 3 3 2 4 4 1 2 2 2 3 2 2 4 4 2 4 2 2 3 2 2 2 2 4 4 1 4 4 2 2 2 3 2 4 4 8 13 18 20 22 23 23 22 19
26 25 24 25 26 26 26 26 23 25 22 10 6 8 3 2 5 4 2 3 1 3 4 3 3 3 3 2 2 2 2 2 2 2 2 2 3 4 4 3 3 6 9 6 1 2 2 2 6 2 3 2 2 3 2 3 2 4 2 2 3 2 1 1 2 2 3 5 5 3 3 3 4 4 2 3 8 9 7 7 9 14 19 22 24 24 22 19
24 21 17 19 21 20 21 20 21 23 14 4 6 7 1 2 4 3 3 2 2 3 2 3 2 1 2 4 3 2 2 3 3 2 2 2 3 3 4 2 1 0 3 5 3 2 2 1 5 2 0 1 3 2 2 3 2 2 1 1 1 2 3 2 2 3 4 5 5 5 4 3 5 5 7 11 13 12 11 10 11 16 21 25 26 26 24 22
21 14 10 17 20 16 16 16 17 15 7 2 5 3 1 1 3 6 6 2 2 2 1 2 1 1 2 3 2 2 1 3 4 2 2 2 2 2 1 2 3 2 2 3 2 1 1 2 4 3 2 0 1 2 6 7 3 2 2 2 1 1 1 1 1 2 3 3 3 4 5 5 4 3 7 10 10 12 15 14 13 18 24 28 29 29 27 25
18 7 3 15 19 17 18 15 10 7 2 2 3 1 0 1 2 5 8 6 3 1 2 3 3 3 3 2 2 2 1 2 3 2 2 2 2 2 1 2 3 3 3 3 1 1 1 2 3 3 1 3 5 5 5 7 6 5 5 5 5 4 2 3 5 1 2 2 3 3 7 7 4 1 3 5 6 11 18 17 16 22 30 31 31 30 28 25
13 3 2 13 18 20 19 10 4 4 3 3 4 3 4 3 2 4 6 6 4 2 2 2 2 3 2 2 3 3 3 2 3 4 3 3 5 4 2 3 4 4 4 2 2 2 1 2 2 4 4 5 6 4 1 4 3 3 3 4 4 4 4 5 7 3 1 2 2 1 5 5 2 2 4 5 7 13 20 21 19 24 31 32 31 30 27 24
10 5 4 11 18 22 17 5 1 4 3 3 3 4 6 4 2 4 5 5 4 3 3 2 3 4 4 3 4 3 4 4 4 5 4 4 5 4 4 6 5 5 4 1 3 1 3 2 2 5 4 2 3 4 2 1 3 1 2 2 3 3 4 5 5 3 2 3 2 1 5 4 1 3 3 3 6 12 17 18 17 22 27 29 29 28 26 24
9 6 5 9 17 21 14 4 4 6 5 3 2 3 5 4 4 5 4 5 5 4 3 3 4 6 5 3 4 5 4 4 4 5 5 4 3 3 5 7 6 5 4 3 2 3 2 2 3 4 6 4 3 3 2 2 0 2 3 1 2 2 3 2 1 2 3 5 6 5 7 5 2 3 4 3 4 8 12 16 18 22 25 25 26 27 26 24
7 5 5 10 19 20 11 5 4 4 6 7 5 4 5 4 6 10 8 7 9 7 4 3 5 7 5 3 4 4 4 4 4 3 4 4 2 1 4 7 7 7 7 5 4 3 3 3 3 5 7 8 7 5 3 2 1 2 2 3 4 5 6 3 2 3 5 5 5 5 6 4 3 2 5 4 4 6 10 17 20 21 22 23 25 26 26 25
6 3 2 7 16 18 14 10 6 3 4 6 5 5 8 6 5 10 12 10 12 10 5 4 5 4 4 5 5 4 6 7 6 4 4 4 3 2 3 6 7 7 6 5 6 5 1 2 5 9 11 11 11 8 3 3 3 3 5 7 6 7 8 5 3 4 4 2 3 4 2 2 5 2 1 1 4 5 8 14 18 19 18 19 22 23 25 26
5 3 4 5 7 10 12 12 9 5 3 6 4 3 9 10 5 6 11 10 11 12 6 4 5 5 5 6 6 5 6 7 7 7 6 5 3 3 3 4 5 7 6 5 7 5 2 3 7 10 14 13 9 6 2 3 3 4 5 6 5 4 5 5 5 5 3 2 7 6 4 3 7 5 4 5 4 4 6 11 15 16 15 18 21 23 25 27
6 3 7 9 5 4 8 11 12 9 6 6 5 4 7 11 8 7 8 6 7 12 8 4 7 11 10 8 5 5 6 6 7 8 7 4 2 2 3 3 4 7 6 4 5 5 3 5 7 6 11 11 5 4 5 4 3 3 4 5 6 6 7 6 5 4 4 4 8 6 3 5 8 5 5 7 8 10 12 15 17 16 18 21 22 23 24 26
9 4 7 11 6 3 5 9 12 13 10 7 4 6 10 13 10 6 4 2 3 9 11 8 10 12 10 7 6 6 8 7 7 7 5 4 5 3 3 4 4 5 5 3 3 4 3 4 4 3 7 8 3 4 6 6 5 5 6 8 9 8 6 6 5 6 7 7 8 6 4 7 8 5 6 8 12 15 15 16 17 18 20 21 20 21 24 27
11 7 6 8 6 3 3 6 10 9 9 8 6 9 10 11 10 6 3 5 5 5 9 12 11 8 7 8 9 11 13 10 9 8 6 5 5 3 4 4 2 3 3 2 1 2 3 3 2 3 3 5 2 1 2 3 5 5 7 10 8 2 3 4 7 7 5 6 8 6 6 9 9 5 7 9 12 13 14 17 21 22 22 21 21 22 25 27
15 11 8 5 4 4 3 4 6 5 6 7 9 9 8 9 12 7 3 8 11 5 5 11 12 6 4 7 10 14 15 11 9 10 8 7 6 5 5 5 5 4 2 3 1 1 3 2 1 3 3 5 3 4 3 1 1 4 10 14 8 3 4 6 5 6 7 8 8 6 6 9 6 4 6 7 9 12 16 21 24 23 23 23 23 25 26 27
19 15 11 6 2 4 5 3 4 6 7 8 10 10 8 9 9 7 4 7 13 13 9 8 9 5 4 7 11 15 16 11 8 9 7 5 5 5 6 6 9 7 4 4 1 1 3 2 1 2 5 3 2 5 4 3 0 5 9 10 9 8 9 7 3 5 8 8 6 6 8 9 4 4 4 5 7 12 18 22 23 23 23 23 24 25 25 27
Wind_Direction
227 226 226 227 226 228 227 229 232 235 238 241 247 251 256 258 259 264 267 270 273 277 281 284 289 294 298 302 304 306 307 308 308 307 304 302 296 280 221 156 135 110 357 341 334 294 252 237 215 215 252 209 177 189 145 140 135 112 91 100 214 198 198 193 189 195 178 276 287 317 330 303 277 303 304 305 285 280 286 286 288 289 291 298 301 303 302 303
228 227 228 227 227 228 228 230 233 236 239 242 245 250 255 258 260 265 268 272 276 278 282 284 288 291 295 299 302 305 307 309 308 305 303 299 265 162 140 124 101 38 350 325 313 289 251 229 197 199 212 183 160 166 180 195 149 121 105 125 225 202 209 204 194 205 209 276 289 303 314 288 262 293 306 298 279 290 298 296 300 304 313 325 325 322 316 312
233 233 232 232 232 232 233 236 237 242 245 248 252 256 258 261 264 267 270 273 277 280 283 286 288 291 295 298 302 305 309 312 311 308 298 152 143 140 134 115 49 1 341 313 275 234 217 207 195 203 205 185 166 173 189 192 182 169 116 171 243 215 228 244 233 244 257 275 286 296 305 291 290 301 293 272 285 293 279 289 300 308 320 330 330 328 323 318
238 238 238 237 239 239 241 243 245 250 252 255 258 261 263 265 268 270 273 275 279 282 284 287 289 292 295 298 302 306 315 319 316 291 146 148 149 151 154 335 348 343 334 314 259 230 213 205 209 213 196 196 244 227 224 207 202 180 156 195 233 186 223 262 261 277 284 281 268 284 304 301 307 312 288 288 311 289 268 286 295 303 314 322 324 326 325 324
241 241 241 241 243 243 246 247 250 254 255 259 261 264 266 268 271 273 277 278 281 284 286 288 290 293 295 298 302 306 323 338 324 150 168 184 190 225 271 308 325 327 325 312 250 230 218 213 214 202 190 229 181 181 246 211 187 174 216 237 242 179 227 277 287 298 298 294 282 292 306 300 308 307 287 291 285 269 284 296 300 304 311 317 320 324 325 327
242 243 243 244 246 246 249 250 252 255 257 261 263 265 268 270 274 276 278 281 283 285 286 287 289 292 295 296 299 303 312 310 236 215 225 233 243 259 274 296 309 311 314 304 247 227 222 215 212 197 186 239 184 193 246 206 193 216 260 256 259 247 248 278 289 291 291 292 288 291 294 296 306 298 289 280 265 275 290 297 299 303 312 316 319 319 318 326
243 244 244 245 247 248 250 252 254 257 260 262 265 268 270 273 276 278 280 282 283 285 285 286 288 289 293 294 296 295 268 264 270 254 253 253 255 262 271 285 292 296 305 297 253 229 224 215 211 200 174 294 208 210 241 211 199 212 270 271 271 266 261 278 288 290 290 286 284 287 287 287 286 289 297 283 277 285 295 297 299 307 320 320 321 322 323 338
246 247 248 248 249 252 253 256 259 262 265 267 269 272 274 276 277 279 280 281 282 283 284 285 288 289 292 293 295 287 265 272 276 255 252 249 252 260 266 275 278 287 299 283 250 233 232 223 216 209 188 227 214 209 229 252 216 200 243 269 278 281 283 292 295 292 291 288 288 289 278 274 275 282 285 281 286 296 300 302 313 330 340 337 351 22 22 10
248 249 251 253 254 256 259 262 264 267 269 270 272 274 275 276 277 279 280 281 283 283 285 287 288 289 290 289 292 286 274 275 266 251 253 251 254 257 259 266 268 278 286 264 242 229 230 229 225 222 226 238 221 229 199 199 244 211 227 262 284 291 294 299 295 290 290 288 289 285 275 280 286 289 275 277 290 312 309 325 355 360 11 32 48 43 32 8
248 250 252 256 258 261 263 265 267 268 269 270 271 273 274 275 276 278 279 280 281 281 284 285 286 287 284 284 278 264 276 274 257 255 256 260 266 262 258 260 262 267 271 266 248 233 230 230 234 228 238 252 213 226 184 169 252 263 275 280 276 285 291 293 288 286 289 287 279 255 268 285 288 256 262 272 288 317 328 11 19 17 38 54 48 4 342 332
249 251 254 256 258 260 262 264 266 266 267 268 269 271 272 274 275 276 277 278 280 282 283 283 285 283 281 279 251 241 274 277 266 268 267 270 272 268 265 262 261 256 255 263 262 254 239 229 231 221 228 238 199 230 230 230 275 309 327 309 289 300 300 287 279 282 285 289 275 229 253 287 281 164 250 264 279 307 340 26 32 45 67 82 71 309 307 312
249 251 252 253 256 258 260 261 263 264 266 267 267 269 270 272 274 276 278 279 281 283 284 284 283 281 282 275 257 258 277 276 271 274 271 272 270 265 264 259 255 248 252 269 273 269 250 233 229 226 227 211 187 273 240 252 309 316 337 323 302 332 316 284 276 276 258 258 268 197 280 302 214 222 253 266 283 310 350 39 60 87 113 135 141 207 199 282
248 248 249 250 252 253 256 257 259 261 263 264 266 268 271 273 275 277 278 281 282 283 284 283 281 283 282 272 269 274 276 272 271 272 269 268 267 263 255 250 251 255 263 271 269 262 250 237 228 230 239 226 210 240 261 310 329 309 333 26 309 342 317 281 279 268 222 247 226 152 273 287 256 245 258 285 307 331 27 66 79 105 128 131 131 125 117 126
244 244 245 247 249 250 252 254 257 259 261 264 267 269 272 274 276 278 280 281 283 282 282 282 283 286 278 270 278 281 275 275 274 270 266 264 263 261 256 255 258 262 267 263 255 250 243 235 225 227 236 236 245 261 298 338 346 307 315 14 330 319 279 289 316 165 309 279 197 158 213 264 273 271 280 326 350 10 52 87 102 127 130 124 120 111 108 111
239 240 241 243 246 247 249 252 254 257 261 264 268 271 273 276 278 279 281 281 280 281 281 283 285 287 280 276 279 279 277 278 275 270 264 258 256 257 259 261 262 262 256 244 240 237 230 218 211 215 226 238 252 286 327 347 1 15 308 302 329 208 266 307 306 209 221 271 170 158 210 266 270 282 300 344 358 359 35 114 135 136 125 118 115 108 106 103
235 237 238 240 242 244 247 250 254 258 262 265 269 274 277 280 280 280 280 279 280 279 280 284 285 284 282 282 280 274 274 273 271 268 256 250 248 251 256 260 260 249 233 229 230 227 217 202 201 207 209 220 179 78 30 353 333 355 224 254 271 229 267 318 314 214 192 179 156 175 223 273 273 291 304 334 349 344 42 136 129 125 117 114 111 106 107 105
233 235 236 239 239 241 245 250 255 259 264 268 272 276 282 283 280 279 277 276 277 276 279 281 282 284 272 270 272 268 268 265 260 255 247 245 244 247 252 251 244 228 218 218 223 217 204 193 189 208 206 129 107 94 44 310 280 304 254 232 249 232 216 288 306 326 77 98 228 262 237 253 273 287 296 326 350 351 137 130 119 115 109 108 106 105 105 105
232 233 235 238 239 240 244 249 255 261 267 272 275 277 279 280 279 277 273 273 272 276 280 266 256 291 273 257 260 263 259 250 250 246 241 240 236 237 234 233 233 216 201 200 208 194 185 181 155 167 24 68 124 125 185 229 223 233 221 222 249 238 224 245 269 308 20 16 307 276 252 257 273 283 301 340 359 68 124 121 115 109 103 102 100 100 99 100
234 235 237 239 239 240 243 250 255 260 265 269 273 275 275 278 278 273 269 264 256 253 270 241 209 200 253 254 253 242 235 238 247 241 235 231 227 224 213 213 212 190 171 161 197 181 168 124 90 154 223 200 192 178 203 219 213 217 218 207 220 236 245 237 246 264 321 326 288 262 258 260 268 286 327 346 9 98 115 114 107 101 99 98 96 95 96 97
236 237 239 240 238 238 243 249 253 257 260 261 266 271 274 277 282 277 266 256 249 247 252 246 235 237 247 261 260 238 246 259 257 240 231 227 221 212 200 194 181 178 176 158 190 182 164 163 175 207 216 211 212 206 212 223 210 200 213 227 228 236 264 258 260 270 206 241 273 258 259 264 264 313 346 342 24 89 102 102 96 96 96 95 95 94 95 96
239 240 240 240 236 235 241 246 250 255 257 258 259 262 261 253 255 285 282 270 264 259 256 255 253 252 254 258 255 253 262 267 255 238 227 220 210 198 195 183 153 192 230 142 136 124 160 199 224 221 221 219 221 213 219 238 231 216 218 245 265 241 260 267 265 277 205 179 264 274 272 273 279 10 357 5 43 59 79 99 99 100 100 98 98 96 97 98
242 242 241 240 235 234 239 242 246 251 255 258 256 252 251 251 256 275 292 287 277 269 261 256 253 252 255 254 252 253 258 262 253 235 219 208 199 197 189 167 159 202 184 124 115 87 202 228 236 233 229 231 265 179 195 226 228 233 219 233 267 248 282 291 283 297 201 179 259 289 258 271 335 47 17 35 59 63 85 107 109 109 107 104 103 103 104 104
244 243 243 241 234 232 236 239 241 245 251 253 252 248 251 263 266 277 287 284 283 276 263 256 252 250 252 253 252 250 245 244 250 240 224 209 199 201 187 162 177 176 145 185 182 182 218 235 239 238 225 198 262 188 154 206 229 225 202 204 252 251 335 283 286 321 336 211 260 238 253 272 51 92 47 51 74 84 93 108 111 114 114 111 113 111 110 109
244 242 242 240 232 229 233 238 238 241 246 246 247 245 249 265 264 281 289 274 283 279 263 254 250 250 251 252 250 244 235 233 243 246 229 213 197 196 196 182 175 168 199 208 197 204 232 246 244 228 173 179 236 237 165 199 245 241 208 207 240 244 223 232 278 331 331 348 3 242 296 295 257 198 71 67 80 85 92 103 105 111 117 119 121 117 114 112
242 241 240 236 228 226 231 237 237 238 240 239 240 237 236 248 257 292 312 297 285 276 263 249 241 245 246 244 241 231 226 229 233 237 224 209 199 188 190 189 176 203 219 201 202 233 252 255 235 141 159 173 206 243 210 194 232 284 230 213 224 233 232 239 294 347 344 335 335 12 293 294 317 278 179 123 81 78 87 98 103 111 120 124 121 117 116 114
240 237 235 230 224 225 230 234 235 234 232 231 231 223 217 217 241 320 0 15 294 255 225 213 211 221 221 221 209 186 188 240 225 221 210 202 202 191 164 181 171 213 207 170 193 242 251 250 210 165 170 151 181 245 225 165 163 268 245 211 215 222 230 237 202 129 244 260 295 47 186 263 305 248 193 157 106 97 97 98 113 124 127 128 123 121 121 116
239 235 229 223 219 223 226 225 228 226 220 224 221 205 202 196 163 43 40 5 285 209 150 172 178 174 193 185 166 155 164 218 180 200 196 190 197 193 188 195 150 207 178 129 205 244 223 251 140 150 147 144 191 241 212 152 140 237 246 177 182 198 210 206 170 181 232 259 318 5 128 259 283 259 188 138 120 118 147 137 137 140 138 135 132 129 127 122
237 232 227 218 215 220 221 217 220 217 210 213 209 198 191 172 158 107 76 325 278 128 121 158 154 157 171 169 169 159 132 152 131 184 189 185 192 187 207 213 172 191 169 136 214 261 196 219 193 163 147 182 208 213 180 156 154 244 213 122 138 164 169 139 133 175 315 2 305 295 138 256 269 268 84 121 141 193 196 186 175 160 151 145 142 139 133 128
235 229 223 213 212 217 216 216 215 208 208 205 195 193 179 161 152 91 89 225 238 92 122 154 139 149 146 152 179 194 119 126 112 167 171 180 192 173 194 210 169 165 177 137 214 264 286 242 215 157 154 213 215 190 172 164 193 217 131 91 70 72 81 82 102 112 33 336 241 218 178 229 269 218 132 189 239 216 193 186 185 169 160 156 151 147 140 133
234 228 219 209 210 214 216 220 215 205 204 201 194 187 170 158 135 113 211 227 104 87 124 146 165 167 135 125 196 239 182 328 109 144 148 164 185 164 122 170 135 125 353 11 247 262 293 303 236 162 182 199 141 74 138 151 146 135 103 61 35 28 38 42 51 85 36 284 216 199 193 192 263 266 177 197 241 186 162 167 188 174 170 168 160 155 146 138
232 227 217 211 213 214 218 223 218 208 204 199 193 180 163 149 105 176 214 223 49 99 118 136 197 153 139 129 173 200 145 358 131 142 136 106 161 155 110 130 92 79 360 330 291 301 323 309 266 227 196 148 103 74 46 68 99 109 84 67 44 337 6 23 355 50 177 260 225 211 203 176 229 263 217 230 310 166 164 169 179 178 178 175 168 163 154 144
229 226 218 215 217 216 220 226 222 212 208 199 188 174 154 147 230 204 224 15 45 209 151 172 214 161 160 132 160 183 147 185 171 143 142 118 148 190 180 173 155 68 339 260 264 337 307 243 268 297 212 168 118 70 19 19 57 88 94 99 91 312 349 350 307 24 232 253 250 209 164 191 238 251 248 278 327 271 198 180 174 175 176 175 172 169 160 152
226 223 220 217 217 217 219 224 225 215 206 195 184 168 138 213 223 187 197 226 194 200 129 136 140 136 143 122 236 191 138 190 189 156 145 121 149 234 254 209 166 144 299 207 221 343 300 296 306 93 257 200 158 139 205 272 114 143 147 136 143 166 63 287 268 267 274 272 286 216 155 245 268 289 317 275 299 285 223 185 175 172 172 173 173 171 165 160
223 221 220 217 216 218 219 220 221 215 201 186 175 154 143 222 221 155 194 211 177 140 86 92 109 103 109 141 235 187 153 220 168 146 130 107 134 247 256 229 183 158 123 144 189 178 203 308 237 185 235 187 176 182 170 142 147 179 152 134 149 153 170 231 229 224 267 288 301 275 174 203 229 263 271 262 297 304 162 165 167 167 170 171 171 173 171 167
221 219 218 217 216 216 217 217 214 207 192 179 165 155 199 212 199 151 205 214 188 151 101 74 105 104 66 287 276 197 181 231 139 125 147 156 176 205 207 210 190 165 138 160 237 170 167 255 253 250 200 155 181 205 131 111 135 204 118 118 170 173 175 227 216 177 202 297 288 221 219 224 192 226 305 327 58 93 133 148 155 161 168 171 174 177 176 173
221 221 216 216 219 217 215 216 214 201 185 174 159 207 209 208 178 180 196 172 180 157 129 78 88 111 254 292 302 272 155 161 127 131 198 195 201 211 215 226 191 175 166 165 215 195 167 261 283 335 340 170 175 178 135 137 190 157 123 175 208 163 151 210 265 98 86 266 265 196 234 287 298 283 343 44 80 93 124 144 154 162 169 175 180 181 181 179
221 225 219 216 219 218 215 217 215 197 184 174 177 206 198 193 181 184 197 139 161 132 131 159 177 160 206 232 252 246 141 153 146 150 212 234 230 202 205 256 197 184 193 188 219 223 187 265 276 185 230 258 130 118 62 57 137 130 180 207 171 114 102 109 243 338 19 251 271 205 208 254 258 245 343 33 139 163 165 161 161 168 175 182 185 185 186 183
220 223 222 220 219 217 216 216 207 194 188 183 207 208 184 195 190 173 168 153 91 68 117 194 215 162 177 192 236 231 171 189 174 155 194 234 241 180 163 223 201 193 209 193 203 254 149 269 283 222 190 292 43 98 23 351 123 140 183 186 116 158 205 98 165 230 253 249 269 279 242 230 217 214 208 207 202 193 185 179 177 182 185 188 189 189 189 186
213 209 212 216 215 213 213 207 193 189 191 199 220 217 176 197 213 188 169 143 91 93 124 216 218 116 160 167 194 215 181 187 179 173 190 196 228 189 144 182 177 37 220 171 171 256 120 220 283 313 212 321 25 87 195 269 313 89 116 356 68 163 182 159 156 186 225 245 261 283 293 265 234 207 183 200 201 183 177 187 194 193 190 191 192 191 191 191
195 189 202 205 200 199 200 196 189 188 191 213 220 231 58 196 242 223 205 181 100 119 187 218 171 166 190 168 185 204 178 182 173 177 210 199 230 240 169 164 150 93 62 121 157 292 74 219 265 311 336 238 201 208 193 193 189 159 189 245 257 194 160 246 238 144 163 208 233 266 277 266 252 201 187 207 200 180 183 189 191 190 190 194 194 193 195 195
182 176 216 196 191 190 189 191 194 189 196 242 226 262 313 217 243 228 219 210 192 133 131 169 182 184 178 174 197 185 155 188 180 183 238 228 221 249 241 144 147 140 83 66 127 226 193 210 239 268 272 198 229 243 203 190 188 178 192 207 204 194 186 257 256 200 139 192 189 223 264 267 259 209 210 221 198 187 192 188 181 187 192 195 196 196 199 198
181 190 218 188 190 190 187 188 190 176 199 232 225 221 208 200 200 209 211 205 203 189 139 159 194 185 185 201 194 172 171 207 201 197 235 234 213 218 197 139 126 127 118 129 227 215 134 135 222 253 238 216 242 268 207 185 171 155 200 206 182 169 167 217 241 231 201 239 152 171 260 265 262 257 255 245 212 197 197 191 182 186 191 194 197 200 203 202
189 206 200 186 189 187 186 196 184 181 214 219 204 214 204 194 191 195 198 199 197 179 177 198 191 198 222 208 181 184 192 205 208 199 215 234 223 219 181 158 139 110 107 202 247 162 99 120 232 266 284 304 313 330 2 96 105 131 247 190 150 172 177 207 229 192 187 228 162 187 252 251 314 318 297 253 205 187 190 190 183 185 192 198 201 203 205 206
184 193 194 185 185 184 188 211 203 204 219 197 178 213 214 218 207 190 185 194 194 171 166 198 191 203 224 191 181 209 208 211 225 207 206 221 226 212 172 170 173 161 168 211 206 171 189 204 205 251 277 293 312 323 320 325 198 203 240 228 177 157 127 131 202 155 215 219 184 206 247 248 290 340 20 58 134 151 168 181 184 187 194 202 206 207 208 208
163 184 205 195 189 189 201 225 202 206 213 211 223 218 218 246 221 204 199 195 199 190 180 220 201 192 203 179 181 213 207 210 233 223 212 225 253 222 178 186 190 189 206 210 157 152 209 205 183 218 244 250 251 243 229 246 238 199 221 226 211 186 173 172 175 195 229 219 183 211 249 271 299 356 43 61 110 134 163 179 190 197 200 205 208 209 211 211
163 180 208 195 195 203 225 232 214 205 199 207 232 220 216 240 235 205 201 206 214 205 198 230 203 179 205 195 191 217 215 213 219 222 214 214 243 253 193 201 207 205 215 195 150 138 160 231 217 222 234 244 250 250 220 154 171 214 217 208 209 210 199 179 157 193 212 213 226 232 215 299 296 292 91 153 166 167 180 186 195 201 204 209 212 214 217 216
175 190 178 167 194 222 236 231 218 214 183 183 195 206 213 222 233 208 200 207 215 206 210 241 198 190 213 196 192 220 216 212 217 225 232 226 245 280 242 222 224 217 205 175 162 145 107 251 232 229 241 249 249 245 208 146 185 212 209 210 226 228 191 180 202 209 166 184 251 243 161 207 267 252 204 203 197 207 212 204 207 210 213 219 220 220 220 217
195 218 188 173 176 219 227 220 210 207 203 195 201 225 224 220 219 209 201 207 208 198 206 244 218 215 216 191 185 223 222 221 224 222 230 234 228 271 273 251 220 204 184 158 164 146 137 244 235 230 250 256 244 204 191 179 187 187 190 209 226 227 203 191 216 222 177 212 258 263 182 212 254 248 205 197 195 205 210 209 216 223 226 227 225 224 222 219
207 237 198 187 198 229 224 210 198 200 210 207 203 226 230 226 220 202 168 158 209 205 206 222 227 222 217 193 185 220 228 227 235 228 212 221 219 199 242 263 230 192 170 142 167 158 153 239 231 216 257 264 255 232 212 190 186 196 214 221 225 228 205 179 203 227 223 238 262 279 266 254 255 228 200 207 209 216 224 226 231 237 238 236 232 230 230 224
209 223 199 192 219 253 235 195 180 192 211 206 213 229 228 227 222 207 155 170 196 216 210 222 233 216 201 201 203 225 234 225 237 244 207 199 227 200 209 241 203 163 169 146 193 197 186 221 165 136 252 273 269 292 269 204 194 205 239 242 235 204 147 188 213 218 226 251 259 263 270 269 260 205 188 213 216 220 235 242 243 245 245 243 241 239 237 229
216 219 204 189 211 216 205 188 171 184 210 206 218 226 220 226 222 209 200 208 213 219 193 213 233 225 195 213 214 228 238 226 231 246 224 210 225 209 210 207 155 141 185 178 174 199 196 236 69 117 226 255 200 170 172 142 176 234 252 249 233 171 190 222 213 191 202 226 246 257 260 262 259 162 168 213 211 211 226 234 239 245 245 245 245 244 240 229
218 220 211 195 211 206 191 172 159 187 212 212 219 225 224 231 217 190 210 238 228 232 227 208 214 209 198 221 225 234 244 245 250 256 243 232 226 208 210 194 166 162 174 171 169 127 164 180 111 167 223 251 165 169 164 110 177 249 248 234 213 208 227 234 232 218 209 201 214 235 241 251 247 130 158 224 208 212 228 234 241 248 248 245 243 242 237 224